KB0RPJ Weather Reports


time (UTC)temp
F
wind
direction
speed
knots
gust
knots
rain 1hr
in
rain 24hr
in
rain mn
in
humidity
%
barometer
mb
20260906165004 89 101 2.6 2.6 0.00 0.00 0.00 68 1016.1
20260906164505 88 173 2.6 4.3 0.00 0.00 0.00 68 1016.2
20260906164005 88 75 0.9 1.7 0.00 0.00 0.00 69 1016.2
20260906163505 88 156 3.5 4.3 0.00 0.00 0.00 70 1016.2
20260906163004 87 137 4.3 6.1 0.00 0.00 0.00 73 1016.2
20260906162504 86 149 0.9 4.3 0.00 0.00 0.00 73 1016.3
20260906162006 86 83 0.9 1.7 0.00 0.00 0.00 73 1016.4
20260906161504 85 118 1.7 2.6 0.00 0.00 0.00 74 1016.4
20260906161005 85 94 0.9 2.6 0.00 0.00 0.00 74 1016.4
20260906160504 85 73 0.9 2.6 0.00 0.00 0.00 75 1016.5
20260906160004 84 57 0.9 2.6 0.00 0.00 0.00 75 1016.5
20260906155504 84 121 3.5 5.2 0.00 0.00 0.00 78 1016.4
20260906155005 83 138 1.7 2.6 0.00 0.00 0.00 78 1016.4
20260906154504 83 99 2.6 2.6 0.00 0.00 0.00 78 1016.5
20260906154004 82 65 0.9 2.6 0.00 0.00 0.00 79 1016.6
20260906153504 82 151 1.7 2.6 0.00 0.00 0.00 79 1016.5
20260906153005 82 129 0.9 6.1 0.00 0.00 0.00 80 1016.5
20260906152504 81 140 1.7 6.1 0.00 0.00 0.00 81 1016.5
20260906152005 81 148 0.9 6.1 0.00 0.00 0.00 81 1016.5
20260906151504 81 63 1.7 1.7 0.00 0.00 0.00 81 1016.5
20260906151005 80 115 0.9 2.6 0.00 0.00 0.00 82 1016.6
20260906150504 80 64 1.7 2.6 0.00 0.00 0.00 82 1016.6
20260906150005 80 38 1.7 2.6 0.00 0.00 0.00 83 1016.5
20260906145504 80 142 0.9 4.3 0.00 0.00 0.00 83 1016.6
20260906145005 80 57 1.7 1.7 0.00 0.00 0.00 84 1016.6
20260906144504 79 83 0.9 2.6 0.00 0.00 0.00 84 1016.5
20260906144005 79 99 3.5 4.3 0.00 0.00 0.00 85 1016.5
20260906143505 79 122 0.0 1.7 0.00 0.00 0.00 85 1016.4
20260906143004 79 139 0.9 1.7 0.00 0.00 0.00 85 1016.4
20260906142504 79 259 1.7 2.6 0.00 0.00 0.00 86 1016.4
20260906142005 79 107 0.0 0.9 0.00 0.00 0.00 86 1016.4
20260906141505 78 65 1.7 2.6 0.00 0.00 0.00 87 1016.5
20260906141005 78 82 0.9 2.6 0.00 0.00 0.00 87 1016.5
20260906140505 78 143 1.7 2.6 0.00 0.00 0.00 88 1016.5
20260906140004 78 148 3.5 4.3 0.00 0.00 0.00 88 1016.4
20260906135504 78 114 2.6 2.6 0.00 0.00 0.00 89 1016.4
20260906135005 77 54 1.7 1.7 0.00 0.00 0.00 89 1016.5
20260906134504 77 76 1.7 1.7 0.00 0.00 0.00 90 1016.4
20260906134005 77 76 1.7 2.6 0.00 0.00 0.00 90 1016.4
20260906133504 77 122 1.7 2.6 0.00 0.00 0.00 91 1016.4
20260906133004 76 81 0.9 2.6 0.00 0.00 0.00 91 1016.5
20260906132505 76 63 0.9 2.6 0.00 0.00 0.00 91 1016.5
20260906132004 76 127 0.9 1.7 0.00 0.00 0.00 91 1016.5
20260906131504 76 128 1.7 2.6 0.00 0.00 0.00 92 1016.4
20260906131005 76 48 0.9 2.6 0.00 0.00 0.00 92 1016.4
20260906130504 76 60 1.7 1.7 0.00 0.00 0.00 92 1016.3
20260906130005 76 67 0.9 0.9 0.00 0.00 0.00 93 1016.3
20260906125505 76 149 1.7 2.6 0.00 0.00 0.00 93 1016.3
20260906125005 75 63 1.7 1.7 0.00 0.00 0.00 93 1016.2
20260906124504 75 76 0.9 2.6 0.00 0.00 0.00 93 1016.1
20260906124005 75 87 0.0 2.6 0.00 0.00 0.00 93 1016.0
20260906123505 75 142 0.0 0.9 0.00 0.00 0.00 93 1016.0
20260906123004 75 132 0.0 0.0 0.00 0.00 0.00 93 1016.0
20260906122504 75 48 0.0 0.0 0.00 0.00 0.00 93 1015.9
20260906122004 75 173 0.0 0.0 0.00 0.00 0.00 93 1015.8
20260906121504 75 63 0.0 0.0 0.00 0.00 0.00 93 1015.7
20260906121004 75 105 0.0 0.0 0.00 0.00 0.00 93 1015.6
20260906120505 75 104 0.0 0.9 0.00 0.00 0.00 93 1015.5
20260906120005 75 66 0.9 1.7 0.00 0.00 0.00 93 1015.5
20260906115505 75 16 0.9 1.7 0.00 0.00 0.00 93 1015.4
20260906115004 75 58 0.0 0.0 0.00 0.00 0.00 93 1015.4
20260906114504 76 61 0.0 0.9 0.00 0.00 0.00 93 1015.3
20260906114005 76 99 0.0 0.9 0.00 0.00 0.00 93 1015.4
20260906113505 76 69 0.9 0.9 0.00 0.00 0.00 93 1015.3
20260906113005 76 71 0.0 1.7 0.00 0.00 0.00 92 1015.3
20260906112504 76 83 0.0 1.7 0.00 0.00 0.00 92 1015.3
20260906112005 76 86 0.0 0.0 0.00 0.00 0.00 92 1015.3
20260906111505 76 123 0.9 0.9 0.00 0.00 0.00 92 1015.3
20260906111005 76 59 0.0 0.0 0.00 0.00 0.00 92 1015.2
20260906110504 76 59 0.0 0.0 0.00 0.00 0.00 92 1015.2
20260906110005 76 88 0.9 0.9 0.00 0.00 0.00 92 1015.1
20260906105504 76 334 0.0 0.0 0.00 0.00 0.00 92 1015.1
20260906105005 76 334 0.0 0.0 0.00 0.00 0.00 92 1015.1
20260906104505 76 85 0.0 0.0 0.00 0.00 0.00 92 1015.1
20260906104005 76 86 0.9 0.9 0.00 0.00 0.00 91 1015.1
20260906103504 76 87 0.0 0.0 0.00 0.00 0.00 91 1015.0
20260906103005 76 79 0.0 0.0 0.00 0.00 0.00 91 1015.1
20260906102504 76 78 0.0 0.0 0.00 0.00 0.00 91 1015.1
20260906102005 76 79 0.0 0.0 0.00 0.00 0.00 91 1015.1
20260906101504 76 74 0.0 0.0 0.00 0.00 0.00 91 1015.0
20260906101005 76 88 0.0 0.0 0.00 0.00 0.00 91 1015.0
20260906100504 76 88 0.0 0.0 0.00 0.00 0.00 91 1015.0
20260906100004 76 92 0.0 0.0 0.00 0.00 0.00 91 1015.0
20260906095504 77 92 0.0 0.0 0.00 0.00 0.00 91 1015.0
20260906095004 77 60 0.0 0.0 0.00 0.00 0.00 90 1014.9
20260906094504 77 49 0.0 0.0 0.00 0.00 0.00 90 1014.8
20260906094005 77 98 0.0 0.0 0.00 0.00 0.00 90 1014.7
20260906093505 77 82 0.0 0.0 0.00 0.00 0.00 90 1014.8
20260906093007 77 7 0.0 0.0 0.00 0.00 0.00 89 1014.7
20260906092505 77 24 0.0 0.0 0.00 0.00 0.00 89 1014.7
20260906092005 77 67 0.0 0.0 0.00 0.00 0.00 89 1014.6
20260906091504 77 67 0.0 0.0 0.00 0.00 0.00 89 1014.6
20260906091005 77 75 0.0 0.0 0.00 0.00 0.00 89 1014.6
20260906090505 77 75 0.0 0.0 0.00 0.00 0.00 88 1014.6
20260906090004 78 75 0.0 0.0 0.00 0.00 0.00 88 1014.5
20260906085505 78 75 0.0 0.0 0.00 0.00 0.00 88 1014.4
20260906085005 78 75 0.0 0.0 0.00 0.00 0.00 87 1014.3
20260906084504 78 75 0.0 1.7 0.00 0.00 0.00 87 1014.3
20260906084005 78 75 0.9 1.7 0.00 0.00 0.00 87 1014.4
20260906083505 78 36 0.0 0.9 0.00 0.00 0.00 87 1014.4
20260906083005 78 42 0.0 0.0 0.00 0.00 0.00 86 1014.4
20260906082505 78 42 0.9 1.7 0.00 0.00 0.00 86 1014.4
20260906082004 78 46 0.0 1.7 0.00 0.00 0.00 86 1014.3
20260906081505 78 54 1.7 2.6 0.00 0.00 0.00 86 1014.2
20260906081005 78 76 0.9 1.7 0.00 0.00 0.00 86 1014.2
20260906080504 78 40 0.9 2.6 0.00 0.00 0.00 86 1014.2
20260906080005 78 45 0.9 1.7 0.00 0.00 0.00 85 1014.1
20260906075504 78 23 0.9 0.9 0.00 0.00 0.00 85 1014.0
20260906075005 78 102 3.5 5.2 0.00 0.00 0.00 85 1014.1
20260906074505 78 58 1.7 1.7 0.00 0.00 0.00 85 1014.2
20260906074005 78 26 0.0 0.0 0.00 0.00 0.00 85 1014.2
20260906073504 78 32 0.0 0.0 0.00 0.00 0.00 85 1014.1
20260906073005 78 51 0.9 1.7 0.00 0.00 0.00 85 1014.2
20260906072505 78 75 0.0 0.0 0.00 0.00 0.00 84 1014.1
20260906072005 78 75 0.9 1.7 0.00 0.00 0.00 84 1014.1
20260906071504 78 353 1.7 2.6 0.00 0.00 0.00 84 1014.1
20260906071005 78 24 0.9 0.9 0.00 0.00 0.00 84 1014.2
20260906070504 78 24 0.9 1.7 0.00 0.00 0.00 83 1014.3
20260906070005 79 24 0.9 0.9 0.00 0.00 0.00 83 1014.3
20260906065505 79 49 0.0 0.9 0.00 0.00 0.00 83 1014.4
20260906065005 79 46 1.7 2.6 0.00 0.00 0.00 83 1014.4
20260906064504 79 46 0.9 0.9 0.00 0.00 0.00 83 1014.6
20260906064005 79 46 0.9 1.7 0.00 0.00 0.00 82 1014.6
20260906063505 79 48 0.0 0.0 0.00 0.00 0.00 82 1014.6
20260906063005 79 48 0.0 0.0 0.00 0.00 0.00 81 1014.7
20260906062505 79 48 0.0 0.0 0.00 0.00 0.00 81 1014.7
20260906062005 79 47 0.0 0.0 0.00 0.00 0.00 81 1014.7
20260906061504 80 48 0.0 0.0 0.00 0.00 0.00 80 1014.8
20260906061005 80 47 0.0 0.9 0.00 0.00 0.00 80 1014.8
20260906060504 80 32 0.9 1.7 0.00 0.00 0.00 80 1014.8
20260906060004 80 32 0.0 0.9 0.00 0.00 0.00 80 1014.8
20260906055504 80 32 0.9 0.9 0.00 0.00 0.00 80 1014.8
20260906055005 80 32 0.9 0.9 0.00 0.00 0.00 79 1014.8
20260906054504 80 32 1.7 1.7 0.00 0.00 0.00 79 1014.8
20260906054005 80 32 0.9 1.7 0.00 0.00 0.00 79 1014.8
20260906053505 80 32 0.9 0.9 0.00 0.00 0.00 79 1014.7
20260906053005 80 32 0.9 1.7 0.00 0.00 0.00 78 1014.7
20260906052505 80 54 0.0 1.7 0.00 0.00 0.00 78 1014.7
20260906052005 81 55 0.9 0.9 0.00 0.00 0.00 78 1014.7
20260906051504 81 55 0.0 0.9 0.00 0.00 0.00 77 1014.7
20260906051005 81 55 0.0 0.0 0.00 0.00 0.00 77 1014.6
20260906050505 81 55 0.0 0.0 0.00 0.00 0.00 77 1014.6
20260906050004 81 55 0.0 0.0 0.00 0.00 0.00 76 1014.6
20260906045504 81 55 0.9 0.9 0.00 0.00 0.00 76 1014.5
20260906045005 81 55 0.9 0.9 0.00 0.00 0.00 76 1014.5
20260906044504 81 31 0.0 0.9 0.00 0.00 0.00 75 1014.5
20260906044005 81 25 0.0 0.0 0.00 0.00 0.00 75 1014.5
20260906043504 81 25 0.0 0.0 0.00 0.00 0.00 74 1014.4
20260906043005 81 25 0.0 0.0 0.00 0.00 0.00 74 1014.4
20260906042504 82 25 0.0 0.9 0.00 0.00 0.00 74 1014.4
20260906042005 82 30 0.9 1.7 0.00 0.00 0.00 73 1014.4
20260906041505 82 5 1.7 1.7 0.00 0.00 0.00 73 1014.3
20260906041005 82 35 1.7 1.7 0.00 0.00 0.00 73 1014.2
20260906040504 82 40 0.9 1.7 0.00 0.00 0.00 72 1014.2
20260906040005 82 46 0.9 1.7 0.00 0.00 0.00 72 1014.2
20260906035505 82 46 1.7 1.7 0.00 0.00 0.00 71 1014.1
20260906035005 82 46 0.9 0.9 0.00 0.00 0.00 71 1014.0
20260906034504 83 46 0.9 1.7 0.00 0.00 0.00 70 1013.9
20260906034005 83 46 0.9 1.7 0.00 0.00 0.00 70 1013.9
20260906033505 83 46 0.9 0.9 0.00 0.00 0.00 69 1013.8
20260906033005 83 27 0.9 1.7 0.00 0.00 0.00 69 1013.7
20260906032504 83 19 0.9 1.7 0.00 0.00 0.00 69 1013.6
20260906032005 83 19 0.9 1.7 0.00 0.00 0.00 68 1013.7
20260906031505 83 19 1.7 1.7 0.00 0.00 0.00 68 1013.6
20260906031005 84 19 0.9 0.9 0.00 0.00 0.00 67 1013.5
20260906030504 84 19 0.9 1.7 0.00 0.00 0.00 67 1013.5
20260906030005 84 10 0.9 1.7 0.00 0.00 0.00 67 1013.5
20260906025505 84 44 0.9 1.7 0.00 0.00 0.00 66 1013.4
20260906025004 84 42 0.9 1.7 0.00 0.00 0.00 66 1013.4
20260906024505 84 11 1.7 2.6 0.00 0.00 0.00 66 1013.4
20260906024005 84 51 0.0 2.6 0.00 0.00 0.00 66 1013.4
20260906023504 84 42 0.0 0.0 0.00 0.00 0.00 66 1013.4
20260906023005 84 42 0.0 0.0 0.00 0.00 0.00 66 1013.3
20260906022505 84 42 0.0 0.0 0.00 0.00 0.00 66 1013.2
20260906022004 84 42 0.0 0.0 0.00 0.00 0.00 66 1013.2
20260906021505 85 42 0.0 0.0 0.00 0.00 0.00 65 1013.2
20260906021005 85 52 0.0 0.0 0.00 0.00 0.00 64 1013.1
20260906020504 85 52 0.0 0.0 0.00 0.00 0.00 63 1013.0
20260906020004 85 52 0.0 0.0 0.00 0.00 0.00 63 1012.9
20260906015505 85 37 0.0 0.0 0.00 0.00 0.00 62 1012.7
20260906015005 86 28 0.0 0.0 0.00 0.00 0.00 62 1012.6
20260906014505 86 28 0.0 0.0 0.00 0.00 0.00 61 1012.5
20260906014004 86 28 0.0 0.0 0.00 0.00 0.00 61 1012.5
20260906013505 87 28 0.0 0.0 0.00 0.00 0.00 61 1012.5
20260906013004 87 28 0.0 0.0 0.00 0.00 0.00 60 1012.6
20260906012505 87 28 0.0 0.0 0.00 0.00 0.00 59 1012.6
20260906012005 88 28 0.0 0.0 0.00 0.00 0.00 58 1012.6
20260906011504 88 28 0.0 0.0 0.00 0.00 0.00 58 1012.5
20260906011005 88 28 0.0 0.0 0.00 0.00 0.00 57 1012.5
20260906010504 89 28 0.0 0.0 0.00 0.00 0.00 57 1012.4
20260906010005 89 28 0.9 0.9 0.00 0.00 0.00 57 1012.4
20260906005504 89 28 0.0 0.9 0.00 0.00 0.00 56 1012.4
20260906005005 90 28 0.0 0.9 0.00 0.00 0.00 56 1012.4
20260906004504 90 28 2.6 2.6 0.00 0.00 0.00 55 1012.3
20260906004005 90 47 0.0 0.9 0.00 0.00 0.00 55 1012.3
20260906003505 90 57 0.9 0.9 0.00 0.00 0.00 54 1012.3
20260906003004 91 66 2.6 2.6 0.00 0.00 0.00 54 1012.3
20260906002504 91 38 0.0 0.9 0.00 0.00 0.00 54 1012.3
20260906002005 91 38 0.0 1.7 0.00 0.00 0.00 53 1012.3
20260906001505 92 17 0.9 2.6 0.00 0.00 0.00 53 1012.3
20260906001005 92 25 4.3 7.0 0.00 0.00 0.00 52 1012.4
20260906000504 92 38 0.9 1.7 0.00 0.00 0.00 53 1012.3
20260906000004 92 117 0.9 1.7 0.00 0.00 0.00 52 1012.4
20260905235505 92 38 0.9 1.7 0.00 0.00 0.00 52 1012.4
20260905235004 93 51 2.6 2.6 0.00 0.00 0.00 51 1012.4
20260905234504 93 25 1.7 4.3 0.00 0.00 0.00 51 1012.4
20260905234005 93 34 2.6 4.3 0.00 0.00 0.00 50 1012.4
20260905233504 93 34 1.7 2.6 0.00 0.00 0.00 50 1012.3
20260905233005 94 29 3.5 4.3 0.00 0.00 0.00 49 1012.3
20260905232504 94 35 2.6 2.6 0.00 0.00 0.00 49 1012.2
20260905232004 94 29 2.6 2.6 0.00 0.00 0.00 49 1012.2
20260905231504 94 29 1.7 4.3 0.00 0.00 0.00 49 1012.2
20260905231005 94 35 2.6 6.1 0.00 0.00 0.00 49 1012.1
20260905230505 94 18 1.7 2.6 0.00 0.00 0.00 48 1012.1
20260905230004 95 15 5.2 7.0 0.00 0.00 0.00 48 1012.0
20260905225505 95 38 3.5 4.3 0.00 0.00 0.00 48 1012.1
20260905225004 95 26 4.3 7.0 0.00 0.00 0.00 48 1012.1
20260905224505 95 34 4.3 5.2 0.00 0.00 0.00 47 1011.9
20260905224004 95 50 1.7 2.6 0.00 0.00 0.00 48 1011.9
20260905223504 95 33 1.7 1.7 0.00 0.00 0.00 48 1011.8
20260905223005 95 54 2.6 4.3 0.00 0.00 0.00 48 1011.8
20260905222504 95 43 1.7 6.1 0.00 0.00 0.00 48 1011.8
20260905222005 95 34 5.2 7.0 0.00 0.00 0.00 48 1011.8
20260905221505 95 32 1.7 2.6 0.00 0.00 0.00 47 1011.9
20260905221005 95 29 2.6 7.0 0.00 0.00 0.00 49 1011.9
20260905220504 95 42 5.2 7.0 0.00 0.00 0.00 48 1011.9
20260905220004 96 31 7.0 7.8 0.00 0.00 0.00 47 1011.9
20260905215504 96 39 2.6 11.3 0.00 0.00 0.00 47 1011.9
20260905215005 97 34 6.1 11.3 0.00 0.00 0.00 46 1012.0
20260905214504 97 34 5.2 11.3 0.00 0.00 0.00 45 1011.9
20260905214004 97 45 2.6 4.3 0.00 0.00 0.00 45 1011.8
20260905213504 97 20 2.6 4.3 0.00 0.00 0.00 46 1011.8
20260905213005 97 40 3.5 4.3 0.00 0.00 0.00 45 1011.9
20260905212505 97 19 2.6 2.6 0.00 0.00 0.00 46 1012.0
20260905212005 98 5 2.6 4.3 0.00 0.00 0.00 43 1012.1
20260905211505 99 25 4.3 5.2 0.00 0.00 0.00 42 1012.1
20260905211004 99 46 3.5 5.2 0.00 0.00 0.00 41 1012.3
20260905210504 100 351 0.9 1.7 0.00 0.00 0.00 41 1012.3
20260905210005 100 95 0.0 4.3 0.00 0.00 0.00 38 1012.4
20260905205505 100 44 1.7 4.3 0.00 0.00 0.00 41 1012.5
20260905205005 100 49 4.3 4.3 0.00 0.00 0.00 41 1012.7
20260905204505 100 50 1.7 7.0 0.00 0.00 0.00 39 1012.9
20260905204005 100 310 1.7 5.2 0.00 0.00 0.00 39 1012.9
20260905203504 100 357 2.6 2.6 0.00 0.00 0.00 39 1013.0
20260905203005 100 289 3.5 4.3 0.00 0.00 0.00 40 1013.0
20260905202506 99 346 0.9 2.6 0.00 0.00 0.00 39 1012.9
20260905193504 99 17 5.2 6.1 0.00 0.00 0.00 41 1013.4
20260905193005 98 346 1.7 2.6 0.00 0.00 0.00 43 1013.5
20260905192504 98 270 2.6 8.7 0.00 0.00 0.00 42 1013.5
20260905192004 98 7 3.5 4.3 0.00 0.00 0.00 44 1013.6
20260905191504 98 39 0.9 1.7 0.00 0.00 0.00 45 1013.6
20260905191004 97 22 1.7 2.6 0.00 0.00 0.00 43 1013.7
20260905190505 97 109 1.7 2.6 0.00 0.00 0.00 43 1013.9
20260905190004 98 42 2.6 4.3 0.00 0.00 0.00 42 1014.0
20260905185505 98 28 2.6 4.3 0.00 0.00 0.00 43 1014.0
20260905185005 98 22 2.6 4.3 0.00 0.00 0.00 43 1014.0
20260905184505 98 41 1.7 4.3 0.00 0.00 0.00 43 1014.1
20260905184005 98 337 1.7 4.3 0.00 0.00 0.00 42 1014.2
20260905183504 98 31 2.6 4.3 0.00 0.00 0.00 42 1014.2
20260905183005 98 29 3.5 5.2 0.00 0.00 0.00 42 1014.2
20260905182504 98 11 1.7 2.6 0.00 0.00 0.00 43 1014.3
20260905182005 97 40 0.9 1.7 0.00 0.00 0.00 42 1014.3
20260905181504 97 17 0.9 2.6 0.00 0.00 0.00 43 1014.3
20260905181005 97 242 1.7 2.6 0.00 0.00 0.00 44 1014.3
20260905180504 97 220 2.6 2.6 0.00 0.00 0.00 44 1014.3
20260905180004 97 91 0.9 1.7 0.00 0.00 0.00 45 1014.4
20260905175505 97 222 1.7 2.6 0.00 0.00 0.00 47 1014.4
20260905175005 96 307 0.9 1.7 0.00 0.00 0.00 47 1014.4
20260905174505 96 149 4.3 6.1 0.00 0.00 0.00 45 1014.4
20260905174004 96 102 0.9 4.3 0.00 0.00 0.00 46 1014.4
20260905173504 96 145 3.5 4.3 0.00 0.00 0.00 47 1014.4
20260905173005 96 134 3.5 5.2 0.00 0.00 0.00 49 1014.5
20260905172506 96 198 1.7 2.6 0.00 0.00 0.00 46 1014.6
20260905172005 96 218 2.6 2.6 0.00 0.00 0.00 47 1014.6
20260905171505 96 254 0.9 1.7 0.00 0.00 0.00 47 1014.6
20260905171004 95 333 2.6 2.6 0.00 0.00 0.00 46 1014.7
20260905170505 95 131 2.6 4.3 0.00 0.00 0.00 48 1014.8
20260905170004 95 208 1.7 4.3 0.00 0.00 0.00 51 1014.9
20260905165505 94 139 1.7 4.3 0.00 0.00 0.00 50 1014.9